DM8MH-13 Weather Reports


time (UTC)temp
F
wind
direction
speed
knots
gust
knots
rain 1hr
in
rain 24hr
in
rain mn
in
humidity
%
barometer
mb
20260508102114 51 77 0.0 0.0 0.00 0.18 0.00 83 1019.4
20260508101113 51 80 0.0 0.0 0.00 0.18 0.00 84 1019.4
20260508100113 51 82 0.0 0.0 0.00 0.18 0.00 84 1019.4
20260508094113 51 65 0.0 0.0 0.00 0.23 0.00 84 1019.4
20260508093113 51 65 0.9 3.5 0.00 0.23 0.00 83 1019.5
20260508092114 51 25 1.7 4.3 0.00 0.23 0.00 83 1019.4
20260508091113 51 63 0.9 2.6 0.00 0.23 0.00 84 1019.4
20260508090113 51 64 1.7 3.5 0.00 0.23 0.00 84 1019.4
20260508085114 50 74 1.7 4.3 0.00 0.28 0.00 84 1019.4
20260508084113 50 95 1.7 4.3 0.00 0.28 0.00 86 1019.2
20260508083114 50 43 0.9 3.5 0.00 0.28 0.00 87 1019.2
20260508082113 50 40 0.9 2.6 0.00 0.28 0.00 87 1019.2
20260508081113 49 39 0.0 1.7 0.00 0.28 0.00 87 1019.2
20260508080113 49 38 0.0 0.0 0.00 0.28 0.00 88 1019.1
20260508075113 49 38 0.9 1.7 0.00 0.34 0.00 88 1019.1
20260508074114 49 37 0.0 0.0 0.00 0.34 0.00 89 1019.1
20260508073114 48 38 1.7 3.5 0.00 0.34 0.00 89 1019.1
20260508070113 48 41 0.9 2.6 0.00 0.34 0.00 91 1018.9
20260508065114 48 40 0.0 2.6 0.00 0.42 0.00 91 1018.8
20260508064113 48 40 0.9 2.6 0.00 0.42 0.00 91 1018.7
20260508062114 47 40 0.0 1.7 0.00 0.42 0.00 91 1018.6
20260508061113 47 38 0.0 3.5 0.00 0.42 0.00 91 1018.6
20260508060113 47 37 0.0 0.9 0.00 0.42 0.00 92 1018.4
20260508055114 47 37 0.0 1.7 0.00 0.47 0.00 92 1018.4
20260508054113 47 36 0.0 2.6 0.00 0.47 0.00 92 1018.3
20260508053115 47 36 0.9 2.6 0.00 0.47 0.00 92 1018.1
20260508052113 47 45 0.0 2.6 0.00 0.47 0.00 92 1018.0
20260508051113 47 46 1.7 2.6 0.00 0.47 0.00 92 1018.1
20260508045113 47 50 0.0 3.5 0.00 0.56 0.00 92 1017.8
20260508044113 47 47 0.9 2.6 0.00 0.56 0.00 92 1017.8
20260508043113 46 45 0.9 2.6 0.00 0.56 0.00 92 1017.7
20260508042113 46 38 0.9 2.6 0.00 0.56 0.00 92 1017.7
20260508041113 47 33 0.9 2.6 0.00 0.56 0.00 92 1017.7
20260508040113 46 32 0.0 0.0 0.00 0.56 0.00 92 1017.7
20260508035113 46 32 0.0 1.7 0.00 0.64 0.00 92 1017.7
20260508034113 46 32 0.9 1.7 0.00 0.64 0.00 92 1017.7
20260508033113 47 31 0.0 0.9 0.00 0.64 0.00 92 1017.6
20260508032113 47 30 1.7 2.6 0.00 0.64 0.00 92 1017.5
20260508031113 47 29 0.9 2.6 0.00 0.64 0.00 92 1017.5
20260508030113 47 28 0.0 0.0 0.00 0.64 0.00 92 1017.4
20260508025112 47 28 0.0 0.0 0.00 0.77 0.00 92 1017.4
20260508024112 47 27 0.0 0.0 0.00 0.77 0.00 92 1017.3
20260508023112 47 26 0.0 0.0 0.00 0.77 0.00 92 1017.4
20260508022113 47 27 0.0 3.5 0.00 0.77 0.00 92 1017.4
20260508021112 47 38 1.7 3.5 0.00 0.77 0.00 92 1017.4
20260508020112 47 39 0.9 3.5 0.00 0.77 0.00 92 1017.4
20260508015113 47 33 1.7 4.3 0.00 0.80 0.00 92 1017.3
20260508014112 47 28 0.9 3.5 0.00 0.80 0.00 92 1017.4
20260508013113 47 25 0.0 0.9 0.00 0.80 0.00 92 1017.3
20260508012112 47 25 0.9 1.7 0.00 0.80 0.00 92 1017.4
20260508011112 47 25 0.0 0.0 0.00 0.80 0.00 92 1017.4
20260508010112 47 25 0.0 0.0 0.00 0.80 0.00 92 1017.4
20260508005113 47 25 0.0 0.0 0.00 0.80 0.00 92 1017.5
20260508004112 47 25 0.0 0.0 0.00 0.80 0.00 92 1017.6
20260508003113 47 25 0.0 0.0 0.00 0.80 0.00 92 1017.6
20260508002113 47 25 0.0 0.0 0.00 0.80 0.00 92 1017.6
20260508001112 47 25 0.0 0.0 0.00 0.80 0.00 92 1017.6
20260508000112 47 25 0.0 0.0 0.00 0.80 0.00 92 1017.6
20260507235112 47 25 0.0 0.0 0.00 0.80 0.00 92 1017.4
20260507234113 47 25 0.0 0.0 0.00 0.80 0.00 92 1017.6
20260507233113 47 25 0.0 0.0 0.00 0.80 0.00 92 1017.4
20260507232113 47 25 0.0 0.0 0.00 0.80 0.00 92 1017.3
20260507231112 47 25 0.0 0.0 0.00 0.80 0.00 92 1017.4
20260507230112 47 25 0.0 0.0 0.00 0.80 0.00 92 1017.5
20260507225112 47 25 0.0 0.0 0.00 0.80 0.00 92 1017.5
20260507224112 47 25 0.0 0.0 0.00 0.80 0.00 91 1017.5
20260507223113 47 25 0.0 0.0 0.00 0.80 0.00 91 1017.3
20260507222112 47 25 0.0 0.0 0.00 0.80 0.00 92 1017.3
20260507221112 47 25 0.0 0.0 0.00 0.80 0.00 92 1017.4
20260507220112 47 26 0.0 0.0 0.00 0.80 0.00 92 1017.4
20260507215112 47 25 0.0 0.0 0.00 0.80 0.80 92 1017.4
20260507214113 47 26 0.0 0.0 0.00 0.80 0.80 92 1017.3
20260507213112 47 25 0.0 0.0 0.00 0.80 0.80 91 1017.3
20260507212111 47 26 0.0 0.0 0.00 0.80 0.80 91 1017.4
20260507211112 47 26 0.0 0.0 0.00 0.80 0.80 91 1017.4
20260507210111 47 26 0.0 0.0 0.00 0.80 0.80 91 1017.2
20260507205112 47 25 0.0 0.0 0.00 0.84 0.80 91 1017.2
20260507204111 47 26 0.0 0.9 0.00 0.84 0.80 91 1017.0
20260507203112 47 26 0.0 0.0 0.01 0.84 0.80 91 1016.9
20260507202111 47 25 0.0 1.7 0.01 0.84 0.80 91 1017.0
20260507201111 47 26 0.0 1.7 0.01 0.84 0.80 91 1016.9
20260507200112 47 26 0.0 0.0 0.01 0.84 0.80 91 1016.8
20260507195111 47 26 0.0 0.0 0.01 0.84 0.80 91 1016.8
20260507194112 47 26 0.0 0.0 0.01 0.84 0.80 91 1016.6
20260507193112 47 26 0.0 0.0 0.00 0.83 0.80 91 1016.5
20260507192111 47 26 0.0 0.9 0.00 0.83 0.80 91 1016.4
20260507191112 47 27 0.9 2.6 0.00 0.83 0.80 91 1016.4
20260507190112 47 22 0.0 2.6 0.00 0.83 0.80 91 1016.3
20260507185112 48 23 0.0 0.0 0.00 0.87 0.80 91 1016.3
20260507184112 48 24 0.0 0.0 0.00 0.87 0.80 91 1016.2
20260507183112 48 24 0.0 0.0 0.00 0.87 0.80 91 1016.2
20260507182111 48 25 0.0 0.0 0.00 0.86 0.80 91 1016.1
20260507181111 48 25 0.9 2.6 0.00 0.87 0.80 91 1016.0
20260507180111 48 31 0.0 1.7 0.00 0.87 0.80 90 1015.8
20260507175111 48 32 0.0 0.0 0.00 1.01 0.80 90 1015.7
20260507174111 48 32 0.0 0.0 0.00 1.01 0.80 90 1015.7
20260507173112 48 32 0.0 2.6 0.00 1.01 0.80 90 1015.7
20260507172112 48 32 0.0 2.6 0.00 1.01 0.80 90 1015.6
20260507171111 48 24 1.7 4.3 0.01 1.01 0.80 90 1015.5
20260507170111 49 15 0.0 3.5 0.01 1.01 0.80 90 1015.4
20260507165111 49 360 0.0 2.6 0.01 1.01 0.80 90 1015.5
20260507164111 49 18 1.7 3.5 0.02 1.01 0.80 90 1015.5
20260507163112 49 347 1.7 4.3 0.02 1.01 0.80 90 1015.4
20260507162111 49 22 1.7 5.2 0.02 1.01 0.80 90 1015.4
20260507161111 49 329 0.9 3.5 0.02 1.00 0.79 91 1015.4
20260507160111 49 331 0.0 2.6 0.02 1.00 0.79 91 1015.3
20260507155111 49 22 0.9 4.3 0.02 1.21 0.79 90 1015.3
20260507154112 49 5 1.7 3.5 0.02 1.20 0.78 91 1015.2
20260507153112 49 19 0.9 2.6 0.02 1.20 0.78 91 1015.0
20260507152111 49 24 1.7 5.2 0.02 1.20 0.78 91 1015.0
20260507151115 49 19 0.9 3.5 0.02 1.20 0.77 91 1015.0
20260507150111 49 340 0.9 5.2 0.02 1.20 0.77 91 1014.9
20260507145111 49 338 0.9 2.6 0.03 1.25 0.77 91 1014.9
20260507144111 49 345 1.7 6.1 0.03 1.24 0.76 91 1014.8
20260507143111 49 330 0.9 4.3 0.04 1.24 0.76 91 1014.8
20260507142111 48 350 0.9 2.6 0.04 1.24 0.76 91 1014.7
20260507141113 48 343 2.6 5.2 0.03 1.23 0.75 91 1014.6
20260507140111 48 10 1.7 5.2 0.04 1.23 0.75 91 1014.6
20260507135111 48 355 2.6 5.2 0.04 1.22 0.74 91 1014.6
20260507134110 48 326 1.7 5.2 0.04 1.21 0.73 91 1014.5
20260507133111 48 32 0.9 4.3 0.03 1.20 0.72 91 1014.4
20260507131111 48 360 2.6 4.3 0.04 1.20 0.72 91 1014.2
20260507130111 48 19 1.7 3.5 0.03 1.19 0.71 91 1014.2
20260507125111 48 355 1.7 6.1 0.03 1.18 0.70 91 1014.1
20260507124110 48 331 1.7 4.3 0.03 1.17 0.69 91 1014.0
20260507123111 48 342 0.9 4.3 0.04 1.17 0.69 92 1013.9
20260507122110 48 333 1.7 5.2 0.04 1.17 0.69 92 1013.7
20260507121111 48 36 1.7 4.3 0.04 1.16 0.68 92 1013.7
20260507120110 48 50 0.9 5.2 0.06 1.16 0.68 92 1013.6
20260507115111 48 355 0.9 3.5 0.05 1.15 0.67 92 1013.5
20260507114111 47 46 0.9 4.3 0.06 1.14 0.66 92 1013.5
20260507113111 47 36 0.9 3.5 0.06 1.13 0.65 92 1013.3
20260507112111 47 9 0.9 4.3 0.06 1.13 0.65 92 1013.2
20260507111110 47 355 0.9 4.3 0.06 1.12 0.64 92 1013.3
20260507105111 47 336 0.9 4.3 0.06 1.10 0.62 92 1013.1
20260507104110 47 38 0.9 3.5 0.05 1.09 0.61 92 1013.1
20260507103111 47 309 0.0 3.5 0.05 1.08 0.60 92 1013.0